Weather in Krasny Yar

Russia / Omsk Oblast     55°14′30″N   72°55′20″E
temp.,
°C
wind,
m/s
gust,
m/s
humid.,
%
clouds,
%
prec.,
mm/h
press.,
hPa
HPBL,
m
17 june, thu
thu1700:00+18wnw33795 0.1 101134
03:00+16wnw339143 1.0 101139
06:00+18wnw248999 1.0 101186
09:00+23w347138 0.0 1010364
12:00+28wsw45515 0.4 10091443
15:00+30wsw47425 0.0 10082605
18:00+30wsw37420 0.0 10052194
21:00+20ssw6156689 0.1 1005348
18 june, fri
fri1800:00+20sw61656100 0.1 1004403
03:00+17ssw3477100 0.1 100260
06:00+17s358299 0.1 100199
09:00+22wnw236244 0.1 1000427
12:00+26sw245089 0.1 9981166
15:00+16nnw8991100 1.0 1000335
18:00+9nnw91590100 1.2 1002666
21:00+9nnw91588100 0.1 1004980
19 june, sat
sat1900:00+9nnw81481100 0.1 10061231
03:00+9nnw101579100 0.1 10061354
06:00+10nnw61364100 0.2 10081518
09:00+12nnw9135096 0.0 10081944
12:00+13nnw91447100 0.0 10092204
15:00+16nnw91238100 0.0 10092633
18:00+16nnw7124270 0.0 10082598
21:00+13nw4856100 0.0 1008208
20 june, sun
sun2000:00+12nw51152100 0.0 1008268
03:00+10wnw51165100 0.0 1007307
06:00+10nw51064100 0.0 1007321
09:00+14nw695299 0.0 1007645
12:00+18nw7114099 0.0 10052741
15:00+17wnw5951100 0.0 10042046
18:00+15wnw81066100 1.3 10041192
21:00+11wnw368196 0.0 1002313
21 june, mon
mon2100:00+10n3591100 0.0 1001136
03:00+8n489898 0.0 1001240
06:00+9nw71187100 0.3 10011196
09:00+8n4994100 0.9 1002800
12:00+9nnw61089100 1.4 1003830
15:00+14n9126299 0.3 10041694
18:00+10nnw813866 1.4 1005878
21:00+10nnw8148119 0.3 1006915